{"data":{"norad_id":58336,"epoch":"2026-09-19T05:20:19.281696Z","epoch_age_seconds":124827,"freshness":"FRESH","line1":"1 58336U 23174CJ  26262.22244539  .00024711  00000+0  35199-3 0  9995","line2":"2 58336  97.3891 355.6486 0004866 128.2371 231.9322 15.56314355160332","mean_motion":15.56314355,"eccentricity":0.0004866,"inclination_deg":97.3891,"raan_deg":355.6486,"arg_perigee_deg":128.2371,"mean_anomaly_deg":231.9322,"bstar":0.00035199,"rev_number":16033,"period_min":92.526294278125,"perigee_km":395.0372196384,"apogee_km":401.6320818489,"semimajor_km":6776.4716507436,"source":"CELESTRAK","updated_at":"2026-09-20T09:00:34.869814Z"}}